STARLINK V

Last updated on June 19, 2020, 12:02 a.m. UTC

1 45749U 20038V   20170.83334491  .03299273  10751-1  70888-2 0  9990
2 45749  53.0011 271.4317 0099658  67.3619 255.9326 15.91553412  1958

Satellite is not in orbit.